User: anonymous   Login
Location: Rancho Del Sol Observatory
(38.7214°N, 120.6350°W)
Time: 15:27:32
(UTC-07:00)
Language:

Cosmos 2221 Rocket - Orbit

View from above orbital plane
View from above orbital plane
View from above satellite
View from above satellite

Ground track
Ground track

The orbit data is extracted from the following two-line orbital elements,

1 22237U 92080B   16270.36714359  .00000071  00000-0  66165-5 0  9996
2 22237  82.5152   3.1298 0019458 352.7412  72.5845 14.78281376284467
Epoch (UTC): 26 September 2016 08:48:41
Eccentricity: 0.0019458
inclination: 82.5152°
perigee height: 621 km
apogee height: 648 km
right ascension of ascending node: 3.1298°
argument of perigee: 352.7412°
revolutions per day: 14.78281376
mean anomaly at epoch: 72.5845°
orbit number at epoch: 28446

The dashed part of the orbit path shows where the satellite is in the earth's shadow,  

DLR